| time (UTC) | temp C | wind direction | speed KPH | gust KPH | rain 1hr cm | rain 24hr cm | rain mn cm | humidity % | barometer mb |
| 20260505035016 | 16 | 0.0 | 3.2 | 0.00 | 0.00 | 0.00 | 42 | 998.4 | |
| 20260505034016 | 16 | 0.0 | 0.0 | 0.00 | 0.00 | 0.00 | 39 | 998.3 | |
| 20260505033016 | 16 | 0.0 | 0.0 | 0.00 | 0.00 | 0.00 | 38 | 998.1 | |
| 20260505032016 | 16 | 0.0 | 0.0 | 0.00 | 0.00 | 0.00 | 41 | 997.9 | |
| 20260505031017 | 16 | 0.0 | 0.0 | 0.00 | 0.00 | 0.00 | 39 | 997.8 | |
| 20260505030036 | 16 | 0.0 | 0.0 | 0.00 | 0.00 | 0.00 | 39 | 997.7 | |
| 20260505025016 | 16 | 0.0 | 0.0 | 0.00 | 0.00 | 0.00 | 39 | 997.5 | |
| 20260505024016 | 17 | 0.0 | 0.0 | 0.00 | 0.00 | 0.00 | 39 | 997.4 | |
| 20260505023016 | 17 | 0.0 | 1.6 | 0.00 | 0.00 | 0.00 | 37 | 997.4 | |
| 20260505022016 | 18 | 0.0 | 0.0 | 0.00 | 0.00 | 0.00 | 36 | 997.3 | |
| 20260505021016 | 18 | 0.0 | 0.0 | 0.00 | 0.00 | 0.00 | 36 | 997.3 | |
| 20260505020056 | 18 | 0.0 | 0.0 | 0.00 | 0.00 | 0.00 | 34 | 997.3 | |
| 20260505015016 | 18 | 0.0 | 0.0 | 0.00 | 0.00 | 0.00 | 34 | 997.1 | |
| 20260505014016 | 19 | 0.0 | 1.6 | 0.00 | 0.00 | 0.00 | 34 | 997.1 | |
| 20260505013016 | 19 | 0.0 | 0.0 | 0.00 | 0.00 | 0.00 | 33 | 997.2 | |
| 20260505012016 | 19 | 0.0 | 0.0 | 0.00 | 0.00 | 0.00 | 34 | 997.3 | |
| 20260505011016 | 20 | 0.0 | 0.0 | 0.00 | 0.00 | 0.00 | 33 | 997.4 | |
| 20260505010016 | 20 | 0.0 | 0.0 | 0.00 | 0.00 | 0.00 | 33 | 997.4 | |
| 20260505005036 | 20 | 0.0 | 0.0 | 0.00 | 0.00 | 0.00 | 31 | 997.4 | |
| 20260505004036 | 20 | 0.0 | 1.6 | 0.00 | 0.00 | 0.00 | 33 | 997.6 | |
| 20260505003016 | 20 | 0.0 | 0.0 | 0.00 | 0.00 | 0.00 | 33 | 997.7 | |
| 20260505002016 | 20 | 0.0 | 0.0 | 0.00 | 0.00 | 0.00 | 34 | 997.8 | |
| 20260505001016 | 20 | 0.0 | 0.0 | 0.00 | 0.00 | 0.00 | 34 | 997.8 | |
| 20260505000016 | 20 | 0.0 | 8.0 | 0.00 | 0.00 | 0.00 | 33 | 997.8 | |
| 20260504235015 | 21 | 0.0 | 4.8 | 0.00 | 0.00 | 0.00 | 33 | 997.8 | |
| 20260504234016 | 21 | 0.0 | 1.6 | 0.00 | 0.00 | 0.00 | 32 | 997.9 | |
| 20260504233015 | 21 | 0.0 | 1.6 | 0.00 | 0.00 | 0.00 | 30 | 997.9 | |
| 20260504232016 | 22 | 0.0 | 1.6 | 0.00 | 0.00 | 0.00 | 31 | 998.0 | |
| 20260504231016 | 21 | 0.0 | 0.0 | 0.00 | 0.00 | 0.00 | 33 | 998.0 | |
| 20260504230015 | 21 | 0.0 | 6.4 | 0.00 | 0.00 | 0.00 | 34 | 998.0 | |
| 20260504225015 | 22 | 0.0 | 3.2 | 0.00 | 0.00 | 0.00 | 30 | 998.0 | |
| 20260504224016 | 23 | 0.0 | 4.8 | 0.00 | 0.00 | 0.00 | 31 | 998.0 | |
| 20260504223015 | 23 | 0.0 | 0.0 | 0.00 | 0.00 | 0.00 | 27 | 997.8 | |
| 20260504222015 | 23 | 0.0 | 0.0 | 0.00 | 0.00 | 0.00 | 29 | 997.8 | |
| 20260504221015 | 23 | 0.0 | 0.0 | 0.00 | 0.00 | 0.00 | 23 | 997.9 | |
| 20260504220015 | 24 | 0.0 | 0.0 | 0.00 | 0.00 | 0.00 | 25 | 998.0 | |
| 20260504215015 | 23 | 0.0 | 0.0 | 0.00 | 0.00 | 0.00 | 27 | 998.1 | |
| 20260504214015 | 23 | 0.0 | 0.0 | 0.00 | 0.00 | 0.00 | 26 | 998.2 | |
| 20260504213015 | 23 | 0.0 | 0.0 | 0.00 | 0.00 | 0.00 | 25 | 998.4 | |
| 20260504212015 | 23 | 0.0 | 0.0 | 0.00 | 0.00 | 0.00 | 28 | 998.5 | |
| 20260504211015 | 23 | 0.0 | 0.0 | 0.00 | 0.00 | 0.00 | 25 | 998.7 | |
| 20260504210015 | 22 | 0.0 | 0.0 | 0.00 | 0.00 | 0.00 | 24 | 998.7 | |
| 20260504205015 | 22 | 0.0 | 0.0 | 0.00 | 0.00 | 0.00 | 27 | 998.8 | |
| 20260504204037 | 23 | 0.0 | 0.0 | 0.00 | 0.00 | 0.00 | 29 | 998.9 | |
| 20260504203017 | 23 | 0.0 | 0.0 | 0.00 | 0.00 | 0.00 | 30 | 999.0 | |
| 20260504202037 | 23 | 0.0 | 0.0 | 0.00 | 0.00 | 0.00 | 33 | 999.0 | |
| 20260504201017 | 22 | 0.0 | 0.0 | 0.00 | 0.00 | 0.00 | 29 | 999.1 | |
| 20260504200017 | 22 | 0.0 | 0.0 | 0.00 | 0.00 | 0.00 | 32 | 999.3 | |
| 20260504195017 | 21 | 0.0 | 0.0 | 0.00 | 0.00 | 0.00 | 32 | 999.4 | |
| 20260504194018 | 25 | 0.0 | 0.0 | 0.00 | 0.00 | 0.00 | 29 | 999.5 | |
| 20260504193017 | 23 | 0.0 | 0.0 | 0.00 | 0.00 | 0.00 | 35 | 999.7 | |
| 20260504192017 | 23 | 0.0 | 1.6 | 0.00 | 0.00 | 0.00 | 30 | 999.8 | |
| 20260504191017 | 23 | 0.0 | 0.0 | 0.00 | 0.00 | 0.00 | 29 | 999.9 | |
| 20260504190037 | 24 | 0.0 | 0.0 | 0.00 | 0.00 | 0.00 | 31 | 1000.0 | |
| 20260504185017 | 25 | 0.0 | 0.0 | 0.00 | 0.00 | 0.00 | 30 | 1000.1 | |
| 20260504184037 | 25 | 0.0 | 0.0 | 0.00 | 0.00 | 0.00 | 30 | 1000.2 | |
| 20260504183017 | 23 | 0.0 | 0.0 | 0.00 | 0.00 | 0.00 | 28 | 1000.4 | |
| 20260504182037 | 22 | 0.0 | 0.0 | 0.00 | 0.00 | 0.00 | 32 | 1000.5 | |
| 20260504181017 | 23 | 0.0 | 0.0 | 0.00 | 0.00 | 0.00 | 30 | 1000.6 | |
| 20260504180037 | 23 | 0.0 | 0.0 | 0.00 | 0.00 | 0.00 | 31 | 1000.7 | |
| 20260504175017 | 22 | 0.0 | 0.0 | 0.00 | 0.00 | 0.00 | 32 | 1000.8 | |
| 20260504174037 | 22 | 0.0 | 0.0 | 0.00 | 0.00 | 0.00 | 31 | 1000.8 | |
| 20260504173016 | 23 | 0.0 | 0.0 | 0.00 | 0.00 | 0.00 | 33 | 1001.0 | |
| 20260504172016 | 22 | 0.0 | 0.0 | 0.00 | 0.00 | 0.00 | 35 | 1001.0 | |
| 20260504171016 | 21 | 0.0 | 4.8 | 0.00 | 0.00 | 0.00 | 38 | 1001.0 | |
| 20260504151016 | 15 | 0.0 | 0.0 | 0.00 | 0.00 | 0.00 | 44 | 1001.4 | |
| 20260504141016 | 12 | 0.0 | 0.0 | 0.00 | 0.00 | 0.00 | 49 | 1001.4 | |
| 20260504081015 | 15 | 0.0 | 0.0 | 0.00 | 0.00 | 0.00 | 27 | 1000.2 | |
| 20260504045017 | 17 | 0.0 | 0.0 | 0.00 | 0.00 | 0.00 | 24 | 1001.3 | |
| 20260504044037 | 17 | 0.0 | 0.0 | 0.00 | 0.00 | 0.00 | 23 | 1001.2 | |
| 20260504043016 | 17 | 0.0 | 0.0 | 0.00 | 0.00 | 0.00 | 23 | 1001.2 | |
| 20260504042016 | 17 | 0.0 | 0.0 | 0.00 | 0.00 | 0.00 | 23 | 1001.2 | |
| 20260504041016 | 17 | 0.0 | 0.0 | 0.00 | 0.00 | 0.00 | 23 | 1001.2 | |
| 20260504040016 | 18 | 0.0 | 0.0 | 0.00 | 0.00 | 0.00 | 21 | 1001.4 |